Time_in_sec,Latitude,Longitude,Altitude,Nbsat,valid_data
1312472150.58432722,47.37616348,8.55026150,627.38751221,3,1
1312472237.14442730,47.37645721,8.55011654,464.92517090,3,1
1312472237.19642043,47.37645721,8.55011654,464.87011719,3,1
1312472237.23702717,47.37645721,8.55011654,464.81503296,3,1
1312472237.29643035,47.37645721,8.55011654,464.77096558,3,1
1312472237.33635950,47.37645340,8.55011654,465.04922485,3,1
1312472237.38701868,47.37645340,8.55011654,465.00595093,3,1
1312472237.43931437,47.37645340,8.55011654,464.95184326,3,1
1312472237.48944592,47.37645340,8.55011654,464.89770508,3,1
1312472237.53541851,47.37645340,8.55011654,464.84353638,3,1
1312472237.58832407,47.37645340,8.55011654,465.16326904,3,1
1312472237.63637328,47.37645340,8.55011654,465.11022949,3,1
1312472237.68435836,47.37645340,8.55011559,465.05718994,3,1
1312472237.73547792,47.37645340,8.55011559,465.00411987,3,1
1312472237.78434372,47.37645340,8.55011559,464.95098877,3,1
1312472237.83542943,47.37645340,8.55011749,465.29809570,3,1
1312472237.88431621,47.37645340,8.55011654,465.24624634,3,1
1312472237.93628478,47.37645340,8.55011654,465.19433594,3,1
1312472237.98442245,47.37645340,8.55011654,465.14236450,3,1
1312472238.03532553,47.37645340,8.55011654,465.09036255,3,1
1312472238.08757567,47.37645340,8.55011749,465.45742798,3,1
1312472238.13610864,47.37645340,8.55011749,465.40673828,3,1
1312472238.18433905,47.37645340,8.55011749,465.35604858,3,1
1312472238.23628974,47.37645340,8.55011749,465.30529785,3,1
1312472238.28433204,47.37645340,8.55011749,465.25451660,3,1
1312472238.33533025,47.37645340,8.55011749,465.64407349,3,1
1312472238.38440967,47.37645340,8.55011749,465.59472656,3,1
1312472238.43626976,47.37645340,8.55011749,465.54531860,3,1
1312472238.48828435,47.37645340,8.55011749,465.49588013,3,1
1312472238.53532481,47.37645340,8.55011749,465.44644165,3,1
1312472238.58433151,47.37645340,8.55011749,465.83264160,3,1
1312472238.63548708,47.37645340,8.55011749,465.78457642,3,1
1312472238.68486786,47.37645340,8.55011749,465.73645020,3,1
1312472238.73555636,47.37645340,8.55011749,465.68829346,3,1
1312472238.78435040,47.37645340,8.55011749,465.64013672,3,1
1312472238.83648300,47.37645340,8.55011845,466.03378296,3,1
1312472238.88499045,47.37645340,8.55011845,465.98703003,3,1
1312472238.93530965,47.37645340,8.55011845,465.94018555,3,1
1312472238.98508739,47.37645340,8.55011845,465.89334106,3,1
1312472239.03665233,47.37645340,8.55011749,465.84643555,3,1
1312472239.08443379,47.37645340,8.55011940,466.25057983,3,1
1312472239.13543606,47.37645340,8.55011940,466.20510864,3,1
1312472239.18442106,47.37645340,8.55011940,466.15957642,3,1
1312472239.23527908,47.37645340,8.55011940,466.11404419,3,1
1312472239.28759360,47.37645340,8.55011845,466.06845093,3,1
1312472239.33671618,47.37645340,8.55011940,466.48489380,3,1
1312472239.38729262,47.37645340,8.55011940,466.44076538,3,1
1312472239.44029212,47.37645340,8.55011940,466.39663696,3,1
1312472239.48728228,47.37645340,8.55011940,466.35247803,3,1
1312472239.53541183,47.37645340,8.55011845,466.30825806,3,1
1312472239.58842993,47.37644958,8.55012035,466.72674561,3,1
1312472239.63629198,47.37644958,8.55012035,466.68399048,3,1
1312472239.68446302,47.37644958,8.55012035,466.64117432,3,1
1312472239.73636651,47.37644958,8.55012035,466.59835815,3,1
1312472239.78740525,47.37644958,8.55012035,466.55548096,3,1
1312472239.83628774,47.37644958,8.55012131,466.97631836,3,1
1312472239.88741708,47.37644958,8.55012131,466.93490601,3,1
1312472239.93630219,47.37644958,8.55012131,466.89346313,3,1
1312472239.98732686,47.37644958,8.55012131,466.85198975,3,1
1312472240.03531051,47.37644958,8.55012131,466.81048584,3,1
1312472240.08842778,47.37644958,8.55012226,467.23977661,3,1
1312472240.13543892,47.37644958,8.55012226,467.19979858,3,1
1312472240.18735194,47.37644958,8.55012226,467.15975952,3,1
1312472240.23540950,47.37644958,8.55012226,467.11965942,3,1
1312472240.28466702,47.37644958,8.55012226,467.07955933,3,1
1312472240.33542895,47.37644958,8.55012321,467.52182007,3,1
1312472240.38387966,47.37644958,8.55012321,467.48324585,3,1
1312472240.43534327,47.37644958,8.55012321,467.44464111,3,1
1312472240.48744678,47.37644958,8.55012321,467.40600586,3,1
1312472240.53529763,47.37644958,8.55012321,467.36730957,3,1
1312472240.58740997,47.37644958,8.55012417,467.81744385,3,1
1312472240.63540101,47.37644958,8.55012417,467.78039551,3,1
1312472240.68740416,47.37644958,8.55012417,467.74328613,3,1
1312472240.73629117,47.37644958,8.55012417,467.70617676,3,1
1312472240.78742218,47.37644958,8.55012417,467.66900635,3,1
1312472240.83530188,47.37644958,8.55012512,468.12695312,3,1
1312472240.88444114,47.37644958,8.55012512,468.09143066,3,1
1312472240.93539715,47.37644958,8.55012512,468.05584717,3,1
1312472240.98841834,47.37644958,8.55012512,468.02020264,3,1
1312472241.03671408,47.37644958,8.55012512,467.98455811,3,1
1312472241.08407760,47.37644958,8.55012512,468.44534302,3,1
1312472241.13638353,47.37644958,8.55012512,468.41134644,3,1
1312472241.18433571,47.37644958,8.55012512,468.37728882,3,1
1312472241.23527932,47.37644958,8.55012512,468.34320068,3,1
1312472241.28441787,47.37644958,8.55012512,468.30905151,4,1
1312472241.33541346,47.37644958,8.55012608,468.77416992,4,1
1312472241.38729405,47.37644958,8.55012608,468.74169922,4,1
1312472241.44029808,47.37644958,8.55012608,468.70919800,4,1
1312472241.48726702,47.37644958,8.55012608,468.67666626,4,1
1312472241.53628445,47.37644958,8.55012608,468.64407349,4,1
1312472241.58834267,47.37644958,8.55012608,469.10217285,4,1
1312472241.63530779,47.37644958,8.55012608,469.07116699,4,1
1312472241.68429422,47.37644958,8.55012608,469.04013062,4,1
1312472241.73629141,47.37644958,8.55012608,469.00903320,4,1
1312472241.78434014,47.37644958,8.55012608,468.97793579,4,1
1312472241.83628273,47.37644958,8.55012703,469.43353271,4,1
1312472241.88442063,47.37644958,8.55012703,469.40399170,4,1
1312472241.93629050,47.37644958,8.55012703,469.37438965,4,1
1312472241.98442721,47.37644958,8.55012608,469.34478760,4,1
1312472242.03814936,47.37644958,8.55012608,469.31512451,4,1
1312472242.08726335,47.37644958,8.55012798,469.77566528,4,1
1312472242.13595319,47.37644958,8.55012798,469.74761963,4,1
1312472242.18841910,47.37644958,8.55012798,469.71954346,4,1
1312472242.23631287,47.37644958,8.55012798,469.69143677,4,1
1312472242.28750873,47.37644958,8.55012798,469.66329956,4,1
1312472242.33626842,47.37644958,8.55012894,470.10681152,4,1
1312472242.38443065,47.37644958,8.55012894,470.08016968,4,1
1312472242.43527889,47.37644958,8.55012894,470.05352783,4,1
1312472242.48443508,47.37644958,8.55012894,470.02682495,4,1
1312472242.53539968,47.37644958,8.55012894,470.00009155,4,1
1312472242.58432674,47.37644958,8.55012989,470.43719482,4,1
1312472242.63663650,47.37644958,8.55012989,470.41192627,4,1
1312472242.68437052,47.37644958,8.55012989,470.38665771,4,1
1312472242.73689389,47.37644958,8.55012989,470.36132812,4,1
1312472242.78443789,47.37644958,8.55012989,470.33596802,4,1
1312472242.83642244,47.37644958,8.55013084,470.76696777,4,1
1312472242.88442183,47.37644958,8.55013084,470.74301147,4,1
1312472242.93674827,47.37644958,8.55013084,470.71905518,4,1
1312472242.98744297,47.37644958,8.55013084,470.69506836,4,1
1312472243.03641248,47.37644958,8.55013084,470.67105103,4,1
1312472243.08767104,47.37644958,8.55013084,471.11346436,4,1
1312472243.13548589,47.37644958,8.55013084,471.09097290,4,1
1312472243.18442845,47.37644958,8.55013084,471.06842041,4,1
1312472243.23561001,47.37644958,8.55013084,471.04586792,4,1
1312472243.28858185,47.37644958,8.55013084,471.02325439,4,1
1312472243.33628750,47.37644958,8.55013180,471.45553589,4,1
1312472243.38384676,47.37644958,8.55013180,471.43438721,4,1
1312472243.43539810,47.37644958,8.55013180,471.41317749,4,1
1312472243.48444963,47.37644958,8.55013180,471.39193726,4,1
1312472243.53541899,47.37644958,8.55013180,471.37066650,4,1
1312472243.58839607,47.37644958,8.55013275,471.80905151,4,1
1312472243.63529491,47.37644958,8.55013275,471.78930664,4,1
1312472243.68446803,47.37644958,8.55013275,471.76953125,4,1
1312472243.73626828,47.37644958,8.55013275,471.74972534,4,1
1312472243.78436232,47.37644958,8.55013275,471.72988892,4,1
1312472243.83548188,47.37644958,8.55013275,472.15527344,4,1
1312472243.88442874,47.37644958,8.55013275,472.13684082,4,1
1312472243.93527508,47.37644958,8.55013275,472.11840820,4,1
1312472243.98741865,47.37644958,8.55013275,472.09988403,4,1
1312472244.03529763,47.37644958,8.55013275,472.08135986,4,1
1312472244.08442092,47.37644958,8.55013371,472.48959351,4,1
1312472244.13627553,47.37644958,8.55013371,472.47238159,4,1
1312472244.18434644,47.37644958,8.55013371,472.45513916,4,1
1312472244.23541713,47.37644958,8.55013371,472.43783569,4,1
1312472244.28436875,47.37644958,8.55013371,472.42053223,4,1
1312472244.33531404,47.37644958,8.55013466,472.83996582,4,1
1312472244.38438225,47.37644958,8.55013466,472.82406616,4,1
1312472244.43528748,47.37644958,8.55013466,472.80810547,4,1
1312472244.48524570,47.37644958,8.55013466,472.79211426,4,1
1312472244.53527522,47.37644958,8.55013371,472.77606201,4,1
1312472244.58527470,47.37644958,8.55013466,473.18508911,4,1
1312472244.63628221,47.37644958,8.55013466,473.17041016,4,1
1312472244.68426204,47.37644958,8.55013466,473.15570068,4,1
1312472244.73713422,47.37644958,8.55013466,473.14096069,4,1
1312472244.78430247,47.37644958,8.55013466,473.12622070,4,1
1312472244.83527684,47.37644958,8.55013561,473.52111816,4,1
1312472244.88442039,47.37644958,8.55013561,473.50762939,4,1
1312472244.93635535,47.37644958,8.55013561,473.49407959,4,1
1312472244.98517513,47.37644958,8.55013561,473.48052979,4,1
1312472245.03630090,47.37644958,8.55013561,473.46691895,4,1
1312472245.08442807,47.37644958,8.55013657,473.87460327,4,1
1312472245.13627720,47.37644958,8.55013657,473.86239624,4,1
1312472245.18441796,47.37644958,8.55013657,473.85012817,4,1
1312472245.23542237,47.37644958,8.55013657,473.83782959,4,1
1312472245.28789115,47.37644958,8.55013657,473.82553101,4,1
1312472245.33531284,47.37644958,8.55013847,474.21282959,4,1
1312472245.39540672,47.37644958,8.55013847,474.20178223,4,1
1312472245.43629527,47.37644958,8.55013752,474.18850708,4,1
1312472245.48430753,47.37644958,8.55013752,474.17959595,4,1
1312472245.53540564,47.37644958,8.55013752,474.16848755,4,1
1312472245.58442283,47.37644958,8.55013847,474.55868530,4,1
1312472245.63528061,47.37644958,8.55013847,474.54885864,4,1
1312472245.68442464,47.37644958,8.55013847,474.53900146,4,1
1312472245.73629975,47.37644958,8.55013847,474.52908325,4,1
1312472245.78442097,47.37644958,8.55013847,474.51916504,4,1
1312472245.83629584,47.37644958,8.55013943,474.90383911,4,1
1312472245.88430619,47.37644958,8.55013943,474.89520264,4,1
1312472245.93549609,47.37644958,8.55013943,474.88650513,4,1
1312472245.98431134,47.37644958,8.55013943,474.87777710,4,1
1312472246.04329658,47.37644958,8.55013943,474.86901855,4,1
1312472246.08443260,47.37644958,8.55014038,475.24343872,4,1
1312472246.13636971,47.37644958,8.55014038,475.23742676,4,1
1312472246.18442774,47.37644958,8.55014038,475.22988892,4,1
1312472246.23670816,47.37644958,8.55014038,475.22232056,4,1
1312472246.29643607,47.37644958,8.55014038,475.21472168,4,1
1312472246.33672166,47.37644958,8.55014229,475.56558228,4,1
1312472246.38430762,47.37644958,8.55014229,475.56036377,4,1
1312472246.43530083,47.37644958,8.55014229,475.55377197,4,1
1312472246.49630642,47.37644958,8.55014229,475.54718018,4,1
1312472246.53628492,47.37644958,8.55014229,475.53918457,4,1
1312472246.58443022,47.37644958,8.55014324,475.88137817,4,1
1312472246.63635635,47.37644958,8.55014324,475.87579346,4,1
1312472246.68428898,47.37644958,8.55014324,475.87014771,4,1
1312472246.73658085,47.37644958,8.55014324,475.86447144,4,1
1312472246.79648805,47.37644958,8.55014324,475.85879517,4,1
1312472246.83848691,47.37644958,8.55014420,476.19628906,4,1
1312472246.89647436,47.37644958,8.55014420,476.19259644,4,1
1312472246.94329000,47.37644958,8.55014420,476.18701172,4,1
1312472246.98437810,47.37644958,8.55014420,476.18231201,4,1
1312472247.04429245,47.37644958,8.55014420,476.17852783,4,1
1312472247.09533072,47.37644958,8.55014515,476.49066162,4,1
1312472247.13533473,47.37644958,8.55014515,476.48687744,4,1
1312472247.18742537,47.37644958,8.55014515,476.48382568,4,1
1312472247.23806405,47.37644958,8.55014515,476.47998047,4,1
1312472247.29639435,47.37644958,8.55014515,476.47607422,4,1
1312472247.34328032,47.37644958,8.55014610,476.77786255,4,1
1312472247.38431311,47.37644958,8.55014610,476.77487183,4,1
1312472247.44328570,47.37644958,8.55014610,476.77249146,4,1
1312472247.49230623,47.37644958,8.55014610,476.76879883,4,1
1312472247.53530288,47.37644958,8.55014610,476.76568604,4,1
1312472247.59231091,47.37644958,8.55014706,477.04968262,4,1
1312472247.63636684,47.37644958,8.55014706,477.04696655,4,1
1312472247.69263053,47.37644958,8.55014706,477.04510498,4,1
1312472247.73728013,47.37644958,8.55014706,477.04226685,4,1
1312472247.78386641,47.37644958,8.55014706,477.04034424,4,1
1312472247.83642554,47.37644958,8.55014706,477.31054688,4,1
1312472247.88429165,47.37644958,8.55014706,477.30889893,4,1
1312472247.93638492,47.37644958,8.55014706,477.30722046,4,1
1312472247.99528956,47.37644958,8.55014706,477.30548096,4,1
1312472248.03867316,47.37644958,8.55014706,477.30337524,4,1
1312472248.08443618,47.37644958,8.55014706,477.57382202,4,1
1312472248.13638186,47.37644958,8.55014706,477.57284546,4,1
1312472248.18740964,47.37644958,8.55014706,477.57180786,4,1
1312472248.24443722,47.37644958,8.55014706,477.57073975,4,1
1312472248.29600430,47.37644958,8.55014706,477.56939697,4,1
1312472248.33631492,47.37644958,8.55014801,477.82998657,4,1
1312472248.39541292,47.37644958,8.55014801,477.82968140,4,1
1312472248.44502902,47.37644958,8.55014801,477.82919312,4,1
1312472248.49540162,47.37644958,8.55014801,477.82873535,4,1
1312472248.54557776,47.37644958,8.55014801,477.82827759,4,1
1312472248.58436155,47.37644958,8.55014896,478.07785034,4,1
1312472248.64329004,47.37644958,8.55014896,478.07803345,4,1
1312472248.69541550,47.37644958,8.55014896,478.07830811,4,1
1312472248.74443650,47.37644958,8.55014896,478.07849121,4,1
1312472248.79540539,47.37644958,8.55014896,478.07861328,4,1
1312472248.84328985,47.37644958,8.55014992,478.31192017,4,1
1312472248.89529014,47.37644958,8.55014992,478.31271362,4,1
1312472248.94342542,47.37644958,8.55014992,478.31341553,4,1
1312472248.99641967,47.37644958,8.55014992,478.31411743,4,1
1312472249.03540111,47.37644958,8.55014992,478.31475830,4,1
1312472249.09642148,47.37644958,8.55015087,478.55572510,4,1
1312472249.14431238,47.37644958,8.55015087,478.55740356,4,1
1312472249.18442702,47.37644958,8.55015087,478.55874634,4,1
1312472249.24328756,47.37644958,8.55015087,478.55981445,4,1
1312472249.29540658,47.37644958,8.55015087,478.56137085,4,1
1312472249.33629918,47.37644958,8.55015087,478.78359985,4,1
1312472249.38436055,47.37644958,8.55015087,478.78512573,4,1
1312472249.43629169,47.37644958,8.55015087,478.78701782,4,1
1312472249.48443103,47.37644958,8.55015087,478.78884888,4,1
1312472249.53632808,47.37644958,8.55015087,478.79067993,4,1
1312472249.59637904,47.37644958,8.55015087,478.98565674,4,1
1312472249.64330959,47.37644958,8.55015087,478.98837280,4,1
1312472249.69536448,47.37644958,8.55015087,478.99063110,4,1
1312472249.74341178,47.37644958,8.55015087,478.99282837,4,1
1312472249.78741980,47.37644958,8.55015182,478.99499512,4,1
1312472249.84342337,47.37644958,8.55015087,479.17977905,4,1
1312472249.89542675,47.37644958,8.55015087,479.18295288,4,1
1312472249.94438195,47.37644958,8.55015087,479.18557739,4,1
1312472249.99540639,47.37644958,8.55015087,479.18814087,4,1
1312472250.04329634,47.37644958,8.55015087,479.19070435,4,1
1312472250.09540725,47.37644958,8.55015087,479.37222290,4,1
1312472250.14331532,47.37644958,8.55015087,479.37524414,4,1
1312472250.19529057,47.37644958,8.55015087,479.37820435,4,1
1312472250.23645306,47.37644958,8.55015087,479.38113403,4,1
1312472250.29605103,47.37644958,8.55015087,479.38345337,4,1
1312472250.34442377,47.37644958,8.55015087,479.54244995,4,1
1312472250.39627934,47.37644958,8.55015087,479.54568481,4,1
1312472250.44339895,47.37644958,8.55015087,479.54888916,4,1
1312472250.49235201,47.37644958,8.55015087,479.55206299,4,1
1312472250.54329777,47.37644958,8.55015087,479.55517578,4,1
1312472250.59254932,47.37644958,8.55014992,479.72097778,4,1
1312472250.64341116,47.37644958,8.55014992,479.72454834,4,1
1312472250.69252110,47.37644958,8.55014992,479.72805786,4,1
1312472250.74348140,47.37644958,8.55014992,479.73156738,4,1
1312472250.79533887,47.37644958,8.55014992,479.73501587,4,1
1312472250.84429169,47.37644958,8.55015087,479.89129639,4,1
1312472250.89635634,47.37644958,8.55015087,479.89517212,4,1
1312472250.94327164,47.37644958,8.55015087,479.89901733,4,1
1312472250.99530602,47.37644958,8.55015087,479.90283203,4,1
1312472251.04431772,47.37644958,8.55015087,479.90661621,4,1
1312472251.09635472,47.37644958,8.55014992,480.04483032,4,1
1312472251.14430547,47.37644958,8.55014992,480.04888916,4,1
1312472251.19642210,47.37644958,8.55014992,480.05294800,4,1
1312472251.24328279,47.37644958,8.55014992,480.05694580,4,1
1312472251.29642344,47.37644958,8.55014992,480.06088257,4,1
1312472251.34328318,47.37644958,8.55014992,480.19955444,4,1
1312472251.39529872,47.37644958,8.55014992,480.20382690,4,1
1312472251.44328117,47.37644958,8.55014992,480.20809937,4,1
1312472251.49529886,47.37644958,8.55014992,480.21231079,4,1
1312472251.54442430,47.37644958,8.55014992,480.21652222,4,1
1312472251.59551501,47.37645340,8.55014992,480.34234619,4,1
1312472251.64329290,47.37645340,8.55014992,480.34680176,4,1
1312472251.69540763,47.37645340,8.55014992,480.35125732,4,1
1312472251.74443269,47.37645340,8.55014992,480.35565186,4,1
1312472251.79532719,47.37645340,8.55014992,480.36001587,4,1
1312472251.84326816,47.37645340,8.55014896,480.47775269,4,1
1312472251.89540744,47.37645340,8.55014896,480.48236084,4,1
1312472251.94327235,47.37645340,8.55014896,480.48690796,4,1
1312472251.99631667,47.37645340,8.55014896,480.49145508,4,1
1312472252.04479647,47.37645340,8.55014896,480.49591064,4,1
1312472252.09629273,47.37645340,8.55014801,480.61605835,4,1
1312472252.14357972,47.37645340,8.55014801,480.62078857,4,1
1312472252.19641566,47.37645340,8.55014801,480.62551880,4,1
1312472252.24383879,47.37645340,8.55014801,480.63018799,4,1
1312472252.29575038,47.37645340,8.55014801,480.63482666,4,1
1312472252.34465241,47.37645340,8.55014706,480.75119019,4,1
1312472252.39583635,47.37645340,8.55014706,480.75607300,4,1
1312472252.44754672,47.37645340,8.55014706,480.76092529,4,1
1312472252.49664259,47.37645340,8.55014706,480.76574707,4,1
1312472252.54433870,47.37645340,8.55014706,480.77053833,4,1
1312472252.59603977,47.37645340,8.55014610,480.88220215,4,1
1312472252.64341450,47.37645340,8.55014610,480.88720703,4,1
1312472252.69633031,47.37645340,8.55014610,480.89218140,4,1
1312472252.74443293,47.37645340,8.55014610,480.89712524,4,1
1312472252.79645252,47.37645340,8.55014610,480.90203857,4,1
1312472252.84330893,47.37645340,8.55014515,481.01196289,4,1
1312472252.89645600,47.37645340,8.55014515,481.01705933,4,1
1312472252.94330239,47.37645340,8.55014515,481.02212524,4,1
1312472252.99245167,47.37645340,8.55014515,481.02713013,4,1
1312472253.04340506,47.37645340,8.55014420,481.03210449,4,1
1312472253.09645557,47.37645340,8.55014420,481.14889526,4,1
1312472253.14441538,47.37645340,8.55014420,481.15408325,4,1
1312472253.19642234,47.37645340,8.55014420,481.15924072,4,1
1312472253.24333262,47.37645340,8.55014420,481.16439819,4,1
1312472253.29241681,47.37645340,8.55014420,481.16949463,4,1
1312472253.34342980,47.37645340,8.55014324,481.28060913,4,1
1312472253.39542246,47.37645340,8.55014324,481.28588867,4,1
1312472253.44331908,47.37645340,8.55014324,481.29113770,4,1
1312472253.49543691,47.37645340,8.55014324,481.29635620,4,1
1312472253.54441786,47.37645340,8.55014324,481.30154419,4,1
1312472253.59633589,47.37645340,8.55014324,481.40872192,4,1
1312472253.64431477,47.37645340,8.55014324,481.41406250,4,1
1312472253.69532800,47.37645340,8.55014229,481.41937256,4,1
1312472253.74431086,47.37645340,8.55014229,481.42468262,4,1
1312472253.79533482,47.37645340,8.55014229,481.42993164,4,1
1312472253.84332776,47.37645340,8.55014229,481.54064941,4,1
1312472253.89634657,47.37645340,8.55014229,481.54614258,4,1
1312472253.94428229,47.37645340,8.55014229,481.55157471,4,1
1312472253.99634051,47.37645340,8.55014229,481.55697632,4,1
1312472254.04428792,47.37645340,8.55014229,481.56231689,4,1
1312472254.09534192,47.37645340,8.55014229,481.67242432,4,1
1312472254.14329171,47.37645340,8.55014229,481.67797852,4,1
1312472254.19642162,47.37645340,8.55014229,481.68347168,4,1
1312472254.24442101,47.37645340,8.55014133,481.68893433,4,1
1312472254.29540658,47.37645340,8.55014133,481.69436646,4,1
1312472254.34331846,47.37645340,8.55014133,481.80603027,4,1
1312472254.39643049,47.37645340,8.55014133,481.81167603,4,1
1312472254.44330573,47.37645340,8.55014133,481.81729126,4,1
1312472254.49531913,47.37645340,8.55014133,481.82287598,4,1
1312472254.54729605,47.37645340,8.55014133,481.82839966,4,1
1312472254.59539914,47.37645340,8.55014038,481.92953491,4,1
1312472254.64329529,47.37645340,8.55014038,481.93518066,4,1
1312472254.69541430,47.37645340,8.55014038,481.94076538,4,1
1312472254.74443221,47.37645340,8.55014038,481.94635010,4,1
1312472254.79540348,47.37645340,8.55014038,481.95193481,4,1
1312472254.84328437,47.37645340,8.55014038,482.06649780,4,1
1312472254.89540315,47.37645340,8.55014038,482.07229614,4,1
1312472254.94329977,47.37645340,8.55014038,482.07809448,4,1
1312472254.99541450,47.37645340,8.55013943,482.08383179,4,1
1312472255.04329515,47.37645340,8.55013943,482.08950806,4,1
1312472255.09540629,47.37645721,8.55014038,482.21646118,4,1
1312472255.14442706,47.37645721,8.55014038,482.22247314,4,1
1312472255.19642973,47.37645721,8.55013943,482.22845459,4,1
1312472255.24478531,47.37645721,8.55013943,482.23440552,4,1
1312472255.29642677,47.37645721,8.55013943,482.24029541,3,1
1312472255.34340644,47.37645721,8.55013943,482.36434937,3,1
1312472255.39540696,47.37645721,8.55013943,482.37045288,3,1
1312472255.44330215,47.37645721,8.55013943,482.37655640,3,1
1312472255.49540687,47.37645721,8.55013943,482.38259888,3,1
1312472255.54443026,47.37645721,8.55013943,482.38861084,3,1
1312472255.59643936,47.37645721,8.55013943,482.52279663,3,1
1312472255.64329457,47.37645721,8.55013943,482.52908325,3,1
1312472255.69644499,47.37645340,8.55013943,482.53530884,3,1
1312472255.74340653,47.37645340,8.55013847,482.54150391,3,1
1312472255.79644918,47.37645340,8.55013847,482.54769897,3,1
1312472255.84431982,47.37645721,8.55013847,482.69390869,3,1
